054  
ASUS41 KPHI 300810  
RWRPHI  
 
REGIONAL WEATHER ROUNDUP  
NATIONAL WEATHER SERVICE MOUNT HOLLY NJ  
400 AM EDT WED JUL 30 2014  
 
NOTE: "FAIR" INDICATES FEW OR NO CLOUDS BELOW 12,000 FEET WITH NO  
SIGNIFICANT WEATHER AND/OR S TO VISIBILITY
.  
 
* = STATION DOES NOT REPORT PRECIPITATION (E.G. RAIN, SNOW, ETC.)  
OR FOG.
 
 
NJZ015>026-300900-  
SOUTHERN NEW JERSEY  
 
CITY SKY/WX TMP DP RH WIND PRES REMARKS
 
POMONA CLEAR 61 58 90 NW5 29.97R  
RIO GRANDE* CLEAR 61 54 77 CALM 29.98R  
MILLVILLE CLEAR 61 56 83 NW6 29.98R  
WRIGHTSTOWN CLEAR 59 56 88 NW2 29.96R  
MOUNT HOLLY CLEAR 57 56 96 CALM 29.98R  
TRENTON CLEAR 60 55 83 NW5 29.98R  
 

 
NJZ001>014-300900-  
NORTHERN NEW JERSEY  
 
CITY SKY/WX TMP DP RH WIND PRES REMARKS
 
SUSSEX CLOUDY 56 53 90 CALM 30.00R  
ANDOVER* N/A 51 50 96 CALM 30.00S  
MORRISTOWN CLEAR 54 52 94 CALM 29.98S  
NEWARK PTCLDY 65 53 65 VRB6 29.97S  
TETERBORO CLEAR 64 53 67 CALM 29.96S  
CALDWELL PTCLDY 56 53 90 CALM 29.98F  
SOMERVILLE PTCLDY 55 52 89 NW3 29.97S  
ALLAIRE* CLOUDY 63 54 72 CALM 29.97R  
TOMS RIVER* CLOUDY 59 55 88 CALM 29.98R  
 

 
PAZ043-044-047-054-055-060>062-066>071-300900-  
EASTERN PENNSYLVANIA  
 
CITY SKY/WX TMP DP RH WIND PRES REMARKS
 
PHILADELPHIA PTCLDY 64 53 67 NW7 29.99S  
NORTH PHILA PTCLDY 63 53 70 NW6 30.00R  
BLUE BELL PTCLDY 57 55 94 CALM 29.99R  
DOYLESTOWN CLEAR 55 54 96 CALM 29.99S  
QUAKERTOWN* CLEAR 52 50 93 CALM 30.01S  
POTTSTOWN CLEAR 54 52 93 CALM 30.01S  
LANCASTER CLEAR 55 52 89 W6 30.01S  
COATESVILLE CLEAR 54 54 100 NW7 30.01S  
READING CLEAR 56 53 90 CALM 30.00S  
ALLENTOWN CLEAR 56 52 86 CALM 30.01R  
MOUNT POCONO PTCLDY 45 43 93 NW3 30.03R  
HAZLETON CLOUDY 48 48 100 CALM 30.05S  
WILKES BARRE CLOUDY 54 49 83 E5 30.01S  
 

 
DEZALL-MDZ008-012-015-019-020-300900-  
DELAWARE AND EASTERN MARYLAND  
 
CITY SKY/WX TMP DP RH WIND PRES REMARKS
 
WILMINGTON CLOUDY 60 55 83 NW8 30.00S  
DOVER PTCLDY 62 56 82 W7 29.97R  
GEORGETOWN CLEAR 59 55 87 VRB3 29.99S  
EASTON CLEAR 62 60 92 CALM 30.03S  
PATUXENT CLEAR 60 52 74 W7 30.00S  
OCEAN CITY CLEAR 57 53 86 NW3 29.98S  
WALLOPS ISLAND CLEAR 59 55 87 NW6 30.00R  
CAMBRIDGE CLEAR 59 54 82 CALM 29.99S  
 

 
PAZ001-021-NYZ056-072-MDZ011-DCZ001-300900-  
OTHER NEARBY LOCATIONS  
 
CITY SKY/WX TMP DP RH WIND PRES REMARKS
 
HARRISBURG PTCLDY 57 54 89 CALM 30.01S  
STATE COLLEGE CLEAR 52 50 93 CALM 30.03S  
WILLIAMSPORT PTCLDY 56 53 90 CALM 30.00S  
BINGHAMTON CLEAR 54 50 86 CALM 30.01S  
NEW YORK CITY CLOUDY 66 52 60 NW5 30.00R  
BALTIMORE CLEAR 57 51 80 W5 30.01S  
WASHINGTON DC MOCLDY 62 51 67 N3 30.03S  
 

 
 
CLICK HERE TO GO TO PREVIOUS BULLETINS.

The Nexlab PA Page
The Nexlab NJ Page
The Nexlab DE Page
The Nexlab MD Page Main Text Page